Weather History for KBKN - October, 2011

Change the Weather History Date:

Monday, October 17, 2011

  Actual Average (KPNC) Record (KPNC)
Temperature  
Mean Temperature 60 °F -  
Max Temperature 68 °F 71 °F 88 °F (1950)
Min Temperature 51 °F 46 °F 30 °F (2002)
Degree Days  
Heating Degree Days 6    
Growing Degree Days 10 (Base 50)    
Moisture  
Dew Point 42 °F    
Average Humidity 54    
Maximum Humidity 67    
Minimum Humidity 36    
Precipitation  
Precipitation 0.00 in - - ()
Sea Level Pressure  
Sea Level Pressure 29.83 in    
Wind  
Wind Speed 11 mph (NE)    
Max Wind Speed 26 mph    
Max Gust Speed 37 mph    
Visibility 10 miles    
Events Rain    
Averages and records for this station are not official NWS values.
T = Trace of Precipitation, MM = Missing Value Source: NWS Daily Summary

Daily Weather History Graph

Daily Weather History Graph

Search for Another Location

Airport or City:

Trip Planner

Search our weather history database for the weather conditions in past years. The results will help you decide how hot, cold, wet, or windy it might be!

Date:

Astronomy

Oct. 17, 2011 Rise Set
Actual Time 7:38 AM CDT 6:50 PM CDT
Civil Twilight 7:12 AM CDT 7:16 PM CDT
Nautical Twilight 6:42 AM CDT 7:46 PM CDT
Astronomical Twilight 6:12 AM CDT 8:16 PM CDT
Moon 10:38 PM CDT (10/17) 12:39 PM CDT (10/17)
Length of Visible Light 12h 04m
Length of Day
11h 12m
Waning Gibbous, 74% of the Moon is Illuminated
Oct 17
Waning Gibbous
Oct 19
Last Quarter
Oct 26
New
Nov 2
First Quarter
Nov 10
Full

Hourly Weather History & Observations

Time (CDT) Temp. Dew Point Humidity Pressure Visibility Wind Dir Wind Speed Gust Speed Precip Events Conditions
12:15 AM 57.2 °F 41.0 °F 55% 29.97 in 10.0 mi NE 9.2 mph - N/A   Clear
12:35 AM 55.4 °F 39.2 °F 54% 29.97 in 10.0 mi NE 9.2 mph - N/A   Clear
12:55 AM 55.4 °F 39.2 °F 54% 29.96 in 10.0 mi NE 9.2 mph - N/A   Partly Cloudy
1:15 AM 55.4 °F 39.2 °F 54% 29.95 in 10.0 mi ENE 9.2 mph - N/A   Partly Cloudy
1:35 AM 53.6 °F 41.0 °F 62% 29.94 in 10.0 mi ENE 8.1 mph - N/A   Partly Cloudy
1:55 AM 53.6 °F 41.0 °F 62% 29.93 in 10.0 mi NE 6.9 mph - N/A   Clear
3:15 AM 51.8 °F 41.0 °F 67% 29.92 in 10.0 mi NNE 8.1 mph - N/A   Partly Cloudy
3:35 AM 51.8 °F 41.0 °F 67% 29.91 in 10.0 mi NE 9.2 mph - N/A   Partly Cloudy
3:55 AM 53.6 °F 41.0 °F 62% 29.90 in 10.0 mi NE 9.2 mph - N/A   Partly Cloudy
4:15 AM 53.6 °F 41.0 °F 62% 29.89 in 10.0 mi NE 9.2 mph - N/A   Partly Cloudy
4:35 AM 53.6 °F 41.0 °F 62% 29.89 in 10.0 mi NE 8.1 mph - N/A   Partly Cloudy
4:55 AM 53.6 °F 41.0 °F 62% 29.89 in 10.0 mi ENE 9.2 mph - N/A   Clear
5:15 AM 53.6 °F 41.0 °F 62% 29.88 in 10.0 mi ENE 9.2 mph - N/A   Clear
5:35 AM 53.6 °F 39.2 °F 58% 29.87 in 10.0 mi ENE 12.7 mph - N/A   Clear
5:55 AM 53.6 °F 39.2 °F 58% 29.86 in 10.0 mi ENE 12.7 mph 16.1 mph N/A   Clear
6:15 AM 53.6 °F 39.2 °F 58% 29.86 in 10.0 mi ENE 12.7 mph - N/A   Partly Cloudy
6:35 AM 53.6 °F 39.2 °F 58% 29.85 in 10.0 mi ENE 13.8 mph - N/A   Scattered Clouds
6:55 AM 53.6 °F 39.2 °F 58% 29.85 in 10.0 mi ENE 11.5 mph 17.3 mph N/A   Partly Cloudy
7:15 AM 51.8 °F 39.2 °F 62% 29.85 in 10.0 mi ENE 11.5 mph 17.3 mph N/A   Partly Cloudy
7:35 AM 51.8 °F 39.2 °F 62% 29.84 in 10.0 mi ENE 13.8 mph - N/A   Clear
7:55 AM 51.8 °F 39.2 °F 62% 29.84 in 10.0 mi ENE 9.2 mph - N/A   Clear
8:15 AM 51.8 °F 39.2 °F 62% 29.83 in 10.0 mi ENE 9.2 mph - N/A   Clear
8:35 AM 53.6 °F 39.2 °F 58% 29.84 in 10.0 mi ENE 9.2 mph 17.3 mph N/A   Clear
8:55 AM 55.4 °F 41.0 °F 58% 29.84 in 10.0 mi ENE 11.5 mph - N/A Rain Light Rain
9:15 AM 55.4 °F 41.0 °F 58% 29.83 in 10.0 mi ENE 15.0 mph - N/A   Clear
9:35 AM 57.2 °F 41.0 °F 55% 29.82 in 10.0 mi ENE 10.4 mph - N/A   Clear
9:55 AM 57.2 °F 42.8 °F 59% 29.83 in 10.0 mi NE 10.4 mph - N/A   Clear
10:15 AM 57.2 °F 42.8 °F 59% 29.81 in 10.0 mi ENE 8.1 mph - N/A   Clear
10:35 AM 59.0 °F 44.6 °F 59% 29.81 in 10.0 mi NE 10.4 mph - N/A   Clear
10:55 AM 59.0 °F 44.6 °F 59% 29.80 in 10.0 mi NE 8.1 mph 16.1 mph N/A   Clear
11:15 AM 60.8 °F 44.6 °F 55% 29.80 in 10.0 mi NE 6.9 mph - N/A   Clear
11:35 AM 62.6 °F 44.6 °F 52% 29.78 in 10.0 mi NE 8.1 mph - N/A   Clear
11:55 AM 62.6 °F 44.6 °F 52% 29.79 in 10.0 mi NNE 3.5 mph - N/A   Clear
12:15 PM 62.6 °F 44.6 °F 52% 29.79 in 10.0 mi NNE 6.9 mph - N/A   Clear
12:35 PM 64.4 °F 46.4 °F 52% 29.79 in 10.0 mi NNE 8.1 mph - N/A   Clear
12:55 PM 64.4 °F 46.4 °F 52% 29.77 in 10.0 mi NNE 6.9 mph - N/A   Clear
1:15 PM 64.4 °F 48.2 °F 56% 29.76 in 10.0 mi NNE 6.9 mph - N/A   Clear
1:35 PM 66.2 °F 48.2 °F 52% 29.76 in 10.0 mi North 8.1 mph - N/A   Clear
1:55 PM 66.2 °F 48.2 °F 52% 29.74 in 10.0 mi NE 9.2 mph - N/A   Clear
2:15 PM 68.0 °F 48.2 °F 49% 29.73 in 10.0 mi NE 10.4 mph - N/A   Clear
2:35 PM 68.0 °F 48.2 °F 49% 29.72 in 10.0 mi NE 10.4 mph - N/A   Clear
2:55 PM 68.0 °F 48.2 °F 49% 29.73 in 10.0 mi NNE 10.4 mph - N/A   Clear
3:15 PM 68.0 °F 48.2 °F 49% 29.74 in 10.0 mi NNE 10.4 mph - N/A   Clear
3:35 PM 68.0 °F 48.2 °F 49% 29.74 in 10.0 mi NNE 9.2 mph - N/A   Clear
3:55 PM 68.0 °F 48.2 °F 49% 29.74 in 10.0 mi NE 11.5 mph - N/A   Clear
4:15 PM 68.0 °F 46.4 °F 46% 29.75 in 10.0 mi North 16.1 mph 21.9 mph N/A   Mostly Cloudy
4:35 PM 68.0 °F 44.6 °F 43% 29.77 in 10.0 mi North 17.3 mph 21.9 mph N/A   Overcast
4:55 PM 66.2 °F 41.0 °F 40% 29.78 in 10.0 mi North 20.7 mph 25.3 mph N/A   Overcast
5:15 PM 64.4 °F 39.2 °F 40% 29.80 in 10.0 mi North 20.7 mph 33.4 mph N/A   Overcast
5:35 PM 60.8 °F 35.6 °F 39% 29.82 in 10.0 mi North 26.5 mph 33.4 mph N/A   Overcast
5:55 PM 59.0 °F 35.6 °F 42% 29.84 in 10.0 mi North 23.0 mph 36.8 mph N/A   Overcast
6:15 PM 59.0 °F 33.8 °F 39% 29.86 in 10.0 mi North 25.3 mph 33.4 mph N/A   Overcast
6:35 PM 59.0 °F 32.0 °F 36% 29.87 in 10.0 mi North 25.3 mph 36.8 mph N/A   Overcast
6:55 PM 57.2 °F 32.0 °F 38% 29.89 in 10.0 mi North 24.2 mph 33.4 mph N/A   Overcast
7:15 PM 57.2 °F 32.0 °F 38% 29.90 in 10.0 mi North 23.0 mph 33.4 mph N/A   Overcast
7:35 PM 57.2 °F 32.0 °F 38% 29.91 in 10.0 mi North 25.3 mph 29.9 mph N/A Thunderstorm Overcast
7:55 PM 55.4 °F 32.0 °F 41% 29.92 in 10.0 mi North 20.7 mph 29.9 mph N/A   Overcast
8:15 PM 55.4 °F 32.0 °F 41% 29.93 in 10.0 mi North 21.9 mph 31.1 mph N/A   Overcast
8:35 PM 55.4 °F 32.0 °F 41% 29.93 in 10.0 mi North 18.4 mph 28.8 mph N/A   Overcast
8:55 PM 55.4 °F 32.0 °F 41% 29.92 in 10.0 mi North 26.5 mph 34.5 mph N/A   Overcast
9:15 PM 53.6 °F 32.0 °F 44% 29.92 in 10.0 mi NNE 19.6 mph 28.8 mph N/A   Overcast
9:35 PM 53.6 °F 30.2 °F 41% 29.92 in 9.0 mi NNE 23.0 mph 28.8 mph N/A   Overcast
9:55 PM 53.6 °F 28.4 °F 38% 29.94 in 7.0 mi NNE 20.7 mph 29.9 mph N/A   Overcast
10:15 PM 53.6 °F 28.4 °F 38% 29.97 in 10.0 mi North 20.7 mph 28.8 mph N/A   Overcast
10:35 PM 53.6 °F 30.2 °F 41% 30.00 in 10.0 mi North 17.3 mph 28.8 mph N/A   Overcast
10:55 PM 53.6 °F 32.0 °F 44% 30.01 in 10.0 mi North 24.2 mph 31.1 mph N/A   Overcast
11:15 PM 53.6 °F 32.0 °F 44% 30.02 in 10.0 mi North 20.7 mph 29.9 mph N/A   Overcast
11:35 PM 53.6 °F 32.0 °F 44% 30.03 in 10.0 mi North 27.6 mph 33.4 mph N/A   Overcast
11:55 PM 53.6 °F 32.0 °F 44% 30.03 in 10.0 mi North 21.9 mph - N/A   Overcast